GW1572 Weather Reports


time (UTC)temp
C
wind
direction
speed
KPH
gust
KPH
rain 1hr
cm
rain 24hr
cm
rain mn
cm
humidity
%
barometer
mb
20260510193952 22 248 11.3 17.7 0.00 0.00 0.00 68 1007.1
20260510193321 22 240 9.7 11.3 0.00 0.00 0.00 69 1007.1
20260510192731 22 258 6.4 9.7 0.00 0.00 0.00 68 1007.1
20260510192132 22 215 8.0 9.7 0.00 0.00 0.00 69 1007.1
20260510191534 21 180 8.0 11.3 0.00 0.00 0.00 70 1007.1
20260510190926 21 215 9.7 12.9 0.00 0.00 0.00 70 1007.4
20260510190319 22 228 6.4 6.4 0.00 0.00 0.00 71 1007.1
20260510185121 22 257 6.4 9.7 0.00 0.00 0.00 68 1007.1
20260510184544 22 234 6.4 11.3 0.00 0.00 0.00 71 1007.1
20260510183943 22 219 3.2 3.2 0.00 0.00 0.00 68 1007.1
20260510183349 22 209 8.0 9.7 0.00 0.00 0.00 70 1007.4
20260510182738 22 254 8.0 11.3 0.00 0.00 0.00 67 1007.1
20260510182115 22 231 6.4 9.7 0.00 0.00 0.00 68 1007.4
20260510181544 22 207 4.8 4.8 0.00 0.00 0.00 70 1007.1
20260510180934 23 183 4.8 4.8 0.00 0.00 0.00 68 1007.1
20260510180317 22 241 1.6 1.6 0.00 0.00 0.00 67 1007.1
20260510175741 22 211 1.6 1.6 0.00 0.00 0.00 68 1007.1
20260510175152 21 288 4.8 4.8 0.00 0.00 0.00 71 1007.1
20260510173950 22 233 3.2 4.8 0.00 0.00 0.00 70 1006.7
20260510173326 21 268 3.2 3.2 0.00 0.00 0.00 68 1006.7
20260510172724 22 236 4.8 6.4 0.00 0.00 0.00 71 1006.7
20260510172111 22 261 3.2 3.2 0.00 0.00 0.00 70 1006.7
20260510170336 23 263 6.4 6.4 0.00 0.00 0.00 67 1007.1
20260510165751 23 303 6.4 9.7 0.00 0.00 0.00 65 1006.7
20260510164545 22 270 4.8 4.8 0.00 0.00 0.00 69 1007.1
20260510163944 21 286 1.6 1.6 0.00 0.00 0.00 67 1007.1
20260510162725 21 318 4.8 4.8 0.00 0.00 0.00 67 1007.1
20260510161529 22 206 6.4 6.4 0.00 0.00 0.00 68 1007.1
20260510160950 22 308 4.8 6.4 0.00 0.00 0.00 71 1007.1
20260510155736 21 281 6.4 9.7 0.00 0.00 0.00 69 1006.7
20260510155150 21 301 3.2 4.8 0.00 0.00 0.00 68 1006.7
20260510154523 21 293 3.2 4.8 0.00 0.00 0.00 72 1006.7
20260510153949 20 256 3.2 4.8 0.00 0.00 0.00 72 1006.7
20260510153322 20 248 3.2 4.8 0.00 0.00 0.00 72 1006.7
20260510152733 20 278 3.2 3.2 0.00 0.00 0.00 72 1007.1
20260510152149 20 247 3.2 4.8 0.00 0.00 0.00 74 1006.7
20260510151535 20 243 4.8 4.8 0.00 0.00 0.00 73 1006.7
20260510150914 21 235 6.4 6.4 0.00 0.00 0.00 69 1006.7
20260510150339 21 230 4.8 6.4 0.00 0.00 0.00 69 1006.4
20260510145717 21 249 1.6 3.2 0.00 0.00 0.00 72 1006.4
20260510145138 21 2 3.2 3.2 0.00 0.00 0.00 67 1006.0
20260510144510 21 349 3.2 3.2 0.00 0.00 0.00 67 1006.0
20260510143926 21 259 1.6 1.6 0.00 0.00 0.00 68 1006.4
20260510143335 20 306 3.2 3.2 0.00 0.00 0.00 69 1006.4
20260510142713 20 346 3.2 4.8 0.00 0.00 0.00 69 1006.4
20260510142128 21 320 6.4 6.4 0.00 0.00 0.00 68 1006.7
20260510140929 20 11 3.2 4.8 0.00 0.00 0.00 70 1006.4
20260510135715 19 316 8.0 9.7 0.00 0.00 0.00 71 1006.4
20260510135116 20 295 1.6 3.2 0.00 0.00 0.00 73 1006.0
20260510134511 19 298 1.6 3.2 0.00 0.00 0.00 74 1006.7
20260510133348 18 325 1.6 1.6 0.00 0.00 0.00 78 1006.4
20260510132749 18 324 3.2 3.2 0.00 0.00 0.00 76 1006.4
20260510131517 18 302 0.0 1.6 0.00 0.00 0.00 81 1006.0
20260510130920 18 312 0.0 1.6 0.00 0.00 0.00 81 1006.4
20260510130331 17 346 1.6 1.6 0.00 0.00 0.00 81 1006.0
20260510125751 16 356 3.2 4.8 0.00 0.00 0.00 85 1006.0
20260510125144 16 329 0.0 1.6 0.00 0.00 0.00 88 1006.4
20260510123308 15 330 0.0 0.0 0.00 0.00 0.00 95 1006.0
20260510122729 14 271 0.0 0.0 0.00 0.00 0.00 96 1006.0
20260510122133 14 289 0.0 0.0 0.00 0.00 0.00 98 1006.0
20260510121511 13 276 0.0 0.0 0.00 0.00 0.00 99 1006.0
20260510120949 13 264 0.0 0.0 0.00 0.00 0.00 99 1006.0
20260510115743 12 294 0.0 0.0 0.00 0.00 0.00 99 1006.0
20260510114518 12 285 0.0 0.0 0.00 0.00 0.00 99 1006.0
20260510113914 12 279 0.0 0.0 0.00 0.00 0.00 99 1005.7
20260510112710 12 277 0.0 0.0 0.00 0.00 0.00 99 1005.4
20260510112131 11 285 0.0 0.0 0.00 0.00 0.00 99 1005.4
20260510111532 11 302 0.0 0.0 0.00 0.00 0.00 99 1005.0
20260510110933 11 275 0.0 0.0 0.00 0.00 0.00 99 1005.0
20260510110312 11 268 0.0 0.0 0.00 0.00 0.00 99 1005.0
20260510105747 11 276 0.0 0.0 0.00 0.00 0.00 99 1005.0
20260510105143 11 252 0.0 0.0 0.00 0.00 0.00 99 1004.7
20260510103935 11 212 1.6 1.6 0.00 0.00 0.00 99 1004.4
20260510103324 11 285 0.0 0.0 0.00 0.00 0.00 99 1004.7
20260510102717 11 272 0.0 0.0 0.00 0.00 0.00 99 1004.7
20260510102142 11 273 0.0 0.0 0.00 0.00 0.00 99 1004.7
20260510101510 11 308 0.0 0.0 0.00 0.00 0.00 99 1004.4
20260510100351 11 270 0.0 0.0 0.00 0.00 0.00 99 1004.4
20260510095710 11 254 0.0 0.0 0.00 0.00 0.00 99 1004.7
20260510095139 11 268 0.0 0.0 0.00 0.00 0.00 99 1004.4
20260510094539 11 275 0.0 0.0 0.00 0.00 0.00 98 1004.4
20260510093908 11 268 0.0 0.0 0.00 0.00 0.00 98 1004.4
20260510093327 11 268 0.0 0.0 0.00 0.00 0.00 98 1004.0
20260510092725 11 267 0.0 0.0 0.00 0.00 0.00 98 1004.4
20260510092129 11 277 0.0 0.0 0.00 0.00 0.00 98 1004.0
20260510091537 11 309 0.0 0.0 0.00 0.00 0.00 98 1004.0
20260510090909 11 262 0.0 0.0 0.00 0.00 0.00 98 1003.7
20260510090341 11 266 0.0 0.0 0.00 0.00 0.00 98 1004.0
20260510085716 11 270 0.0 0.0 0.00 0.00 0.00 98 1003.7
20260510083948 11 271 0.0 0.0 0.00 0.00 0.00 97 1003.7
20260510083352 11 275 0.0 0.0 0.00 0.00 0.00 97 1003.7
20260510082744 11 212 0.0 0.0 0.00 0.00 0.00 97 1003.7
20260510082119 11 259 0.0 0.0 0.00 0.00 0.00 97 1003.3
20260510081549 12 272 0.0 0.0 0.00 0.00 0.00 97 1003.3
20260510080918 12 295 0.0 0.0 0.00 0.00 0.00 96 1003.7
20260510080327 12 277 0.0 0.0 0.00 0.00 0.00 96 1003.3
20260510075750 12 274 0.0 0.0 0.00 0.00 0.00 96 1003.3
20260510074542 12 283 0.0 0.0 0.00 0.00 0.00 96 1003.0
20260510073942 12 274 0.0 0.0 0.00 0.00 0.00 96 1003.3
20260510073347 12 273 0.0 0.0 0.00 0.00 0.00 96 1003.0
20260510072734 12 277 0.0 0.0 0.00 0.00 0.00 96 1003.0
20260510072126 12 272 0.0 0.0 0.00 0.00 0.00 96 1003.3
20260510071546 12 263 0.0 0.0 0.00 0.00 0.00 96 1003.3
20260510070925 12 268 0.0 0.0 0.00 0.00 0.00 96 1003.3
20260510070312 12 277 1.6 1.6 0.00 0.00 0.00 96 1003.3
20260510065734 12 285 0.0 0.0 0.00 0.00 0.00 95 1003.3
20260510065141 12 283 0.0 0.0 0.00 0.00 0.00 95 1003.0
20260510063923 12 294 0.0 0.0 0.00 0.00 0.00 95 1003.3
20260510063330 13 288 0.0 0.0 0.00 0.00 0.00 94 1003.0
20260510062709 13 280 0.0 0.0 0.00 0.00 0.00 94 1003.3
20260510062146 13 314 0.0 0.0 0.00 0.00 0.00 94 1003.3
20260510061534 13 305 0.0 0.0 0.00 0.00 0.00 94 1003.3
20260510060949 13 275 0.0 1.6 0.00 0.00 0.00 94 1003.3
20260510060341 13 299 0.0 0.0 0.00 0.00 0.00 94 1003.3
20260510055725 13 280 0.0 0.0 0.00 0.00 0.00 94 1003.3
20260510055118 13 302 1.6 1.6 0.00 0.00 0.00 94 1003.3
20260510054538 13 282 0.0 1.6 0.00 0.00 0.00 93 1003.3
20260510053314 13 261 0.0 0.0 0.00 0.00 0.00 93 1003.3
20260510052149 13 252 0.0 0.0 0.00 0.00 0.00 92 1003.3
20260510051548 13 256 0.0 0.0 0.00 0.00 0.00 92 1003.3
20260510050912 13 270 0.0 0.0 0.00 0.00 0.00 92 1003.3
20260510050332 14 269 0.0 0.0 0.00 0.00 0.00 91 1003.3
20260510045721 14 282 0.0 0.0 0.00 0.00 0.00 91 1003.7
20260510045110 14 200 0.0 0.0 0.00 0.00 0.00 91 1003.3
20260510043931 14 258 0.0 0.0 0.00 0.00 0.00 91 1003.7
20260510043338 14 271 0.0 0.0 0.00 0.00 0.00 91 1003.7
20260510042711 14 273 0.0 0.0 0.00 0.00 0.00 91 1003.7
20260510042145 14 241 0.0 0.0 0.00 0.00 0.00 91 1003.3
20260510041533 14 304 0.0 0.0 0.00 0.00 0.00 91 1003.3
20260510040924 14 260 0.0 0.0 0.00 0.00 0.00 91 1003.3
20260510040343 14 274 0.0 0.0 0.00 0.00 0.00 91 1003.7
20260510035747 14 266 0.0 0.0 0.00 0.00 0.00 91 1003.7
20260510035123 14 266 0.0 0.0 0.00 0.00 0.00 91 1003.7
20260510034541 14 220 0.0 1.6 0.00 0.00 0.00 91 1003.7
20260510033909 14 351 1.6 1.6 0.00 0.00 0.00 91 1003.7
20260510033316 14 322 0.0 1.6 0.00 0.00 0.00 91 1003.7
20260510032752 14 282 0.0 0.0 0.00 0.00 0.00 91 1003.7
20260510032147 14 295 0.0 0.0 0.00 0.00 0.00 91 1003.7
20260510031524 14 263 0.0 0.0 0.00 0.00 0.00 91 1003.3
20260510030919 14 278 0.0 0.0 0.00 0.00 0.00 91 1003.3
20260510030328 14 263 0.0 0.0 0.00 0.00 0.00 90 1003.3
20260510025732 14 260 0.0 0.0 0.00 0.00 0.00 90 1003.3
20260510025123 14 262 0.0 0.0 0.00 0.00 0.00 90 1003.3
20260510023940 15 330 0.0 0.0 0.00 0.00 0.00 90 1003.3
20260510022739 15 270 0.0 0.0 0.00 0.00 0.00 89 1003.0
20260510021510 15 271 0.0 0.0 0.00 0.00 0.00 88 1002.7
20260510020952 15 253 0.0 0.0 0.00 0.00 0.00 88 1002.7
20260510015740 15 274 0.0 0.0 0.00 0.00 0.00 87 1002.7
20260510015143 15 280 0.0 0.0 0.00 0.00 0.00 86 1002.7
20260510014511 15 274 0.0 0.0 0.00 0.00 0.00 86 1002.7
20260510013946 15 264 0.0 0.0 0.00 0.00 0.00 85 1002.3
20260510012725 16 293 0.0 0.0 0.00 0.00 0.00 85 1002.0
20260510012131 16 276 0.0 0.0 0.00 0.00 0.00 84 1002.0
20260510011556 16 271 0.0 0.0 0.00 0.00 0.00 84 1002.0
20260510010951 16 269 0.0 0.0 0.00 0.00 0.00 84 1001.6
20260510010348 16 262 0.0 0.0 0.00 0.00 0.00 83 1002.0
20260510005143 16 270 0.0 0.0 0.00 0.00 0.00 81 1001.6
20260510004550 17 275 0.0 0.0 0.00 0.00 0.00 80 1001.6
20260510003308 17 273 0.0 0.0 0.00 0.00 0.00 79 1001.6
20260510002716 18 5 0.0 1.6 0.00 0.00 0.00 78 1001.6
20260510001511 19 276 0.0 0.0 0.00 0.00 0.00 74 1001.0
20260510000943 20 277 0.0 0.0 0.00 0.00 0.00 71 1001.3
20260510000349 20 256 0.0 0.0 0.00 0.00 0.00 70 1001.0
20260509235710 21 286 1.6 3.2 0.00 0.00 0.00 65 1001.0
20260509235126 21 314 3.2 3.2 0.00 0.00 0.00 64 1001.0
20260509234543 21 13 4.8 9.7 0.00 0.00 0.00 63 1001.0
20260509233949 21 340 4.8 6.4 0.00 0.00 0.00 61 1001.0
20260509233339 22 16 1.6 1.6 0.00 0.00 0.00 61 1001.0
20260509232130 22 348 3.2 4.8 0.00 0.00 0.00 61 1001.0
20260509231509 22 297 1.6 3.2 0.00 0.00 0.00 61 1001.0
20260509230951 23 236 1.6 3.2 0.00 0.00 0.00 58 1001.0
20260509230332 23 350 1.6 1.6 0.00 0.00 0.00 60 1001.0
20260509225146 22 329 3.2 4.8 0.00 0.00 0.00 58 1001.0
20260509224535 22 31 8.0 9.7 0.00 0.00 0.00 57 1001.0
20260509223928 22 332 4.8 4.8 0.00 0.00 0.00 58 1001.0
20260509223343 22 305 4.8 6.4 0.00 0.00 0.00 59 1001.0
20260509222130 23 280 4.8 6.4 0.00 0.00 0.00 58 1001.0
20260509220917 23 18 1.6 1.6 0.00 0.00 0.00 57 1000.6
20260509220325 23 335 3.2 3.2 0.00 0.00 0.00 56 1001.0
20260509215723 23 13 4.8 4.8 0.00 0.00 0.00 55 1001.0
20260509215134 23 339 6.4 6.4 0.00 0.00 0.00 56 1001.0
20260509214520 23 286 14.5 16.1 0.00 0.00 0.00 56 1001.3
20260509213334 23 312 4.8 6.4 0.00 0.00 0.00 56 1001.0
20260509212738 23 299 3.2 3.2 0.00 0.00 0.00 57 1001.0
20260509212145 22 26 8.0 11.3 0.00 0.00 0.00 57 1001.3
20260509211542 23 324 6.4 6.4 0.00 0.00 0.00 57 1001.3
20260509210931 21 302 3.2 3.2 0.00 0.00 0.00 61 1001.0
20260509210318 22 9 6.4 6.4 0.00 0.00 0.00 59 1001.3
20260509205747 22 358 4.8 6.4 0.00 0.00 0.00 58 1001.0
20260509205134 22 299 4.8 4.8 0.00 0.00 0.00 57 1001.0
20260509204537 22 296 1.6 1.6 0.00 0.00 0.00 60 1001.0
20260509203950 22 308 6.4 9.7 0.00 0.00 0.00 59 1001.3
20260509203321 21 3 3.2 3.2 0.00 0.00 0.00 60 1001.3
20260509202753 22 320 3.2 3.2 0.00 0.00 0.00 61 1001.0
20260509202126 22 290 9.7 12.9 0.00 0.00 0.00 57 1001.3
20260509201532 22 341 6.4 6.4 0.00 0.00 0.00 59 1001.3
20260509200939 21 302 6.4 9.7 0.00 0.00 0.00 63 1001.0
20260509200309 22 5 6.4 6.4 0.00 0.00 0.00 60 1001.3
20260509195125 22 345 6.4 9.7 0.00 0.00 0.00 62 1001.3